| time (UTC) | temp F | wind direction | speed MPH | gust MPH | rain 1hr in | rain 24hr in | rain mn in | humidity % | barometer mb |
| 20260831003051 | 64 | 0 | 0.0 | 2.0 | 0.00 | 0.00 | 0.00 | 87 | 1020.2 |
| 20260831001606 | 64 | 303 | 0.0 | 2.0 | 0.00 | 0.00 | 0.00 | 86 | 1019.9 |
| 20260831000111 | 65 | 9 | 0.0 | 2.0 | 0.00 | 0.00 | 0.00 | 86 | 1019.8 |
| 20260830234554 | 65 | 51 | 0.0 | 3.0 | 0.00 | 0.00 | 0.00 | 85 | 1019.6 |
| 20260830233102 | 65 | 309 | 1.0 | 3.0 | 0.00 | 0.00 | 0.00 | 84 | 1019.7 |
| 20260830231558 | 66 | 44 | 1.0 | 4.0 | 0.00 | 0.00 | 0.00 | 84 | 1019.7 |
| 20260830230057 | 66 | 0 | 0.0 | 2.0 | 0.00 | 0.00 | 0.00 | 84 | 1019.6 |
| 20260830224553 | 66 | 265 | 0.0 | 2.0 | 0.00 | 0.00 | 0.00 | 83 | 1019.9 |
| 20260830223133 | 67 | 0 | 0.0 | 2.0 | 0.00 | 0.00 | 0.00 | 82 | 1019.6 |
| 20260830221557 | 67 | 0 | 0.0 | 1.0 | 0.00 | 0.00 | 0.00 | 83 | 1019.4 |
| 20260830220108 | 67 | 265 | 0.0 | 1.0 | 0.00 | 0.00 | 0.00 | 82 | 1019.7 |
| 20260830214559 | 67 | 0 | 0.0 | 2.0 | 0.00 | 0.00 | 0.00 | 82 | 1019.3 |
| 20260830213059 | 67 | 0 | 0.0 | 2.0 | 0.00 | 0.00 | 0.00 | 81 | 1019.4 |
| 20260830211555 | 68 | 0 | 0.0 | 2.0 | 0.00 | 0.00 | 0.00 | 81 | 1019.7 |
| 20260830210053 | 68 | 0 | 0.0 | 2.0 | 0.00 | 0.00 | 0.00 | 80 | 1019.7 |
| 20260830204556 | 68 | 0 | 0.0 | 2.0 | 0.00 | 0.00 | 0.00 | 79 | 1019.6 |
| 20260830203055 | 67 | 137 | 0.0 | 2.0 | 0.00 | 0.00 | 0.00 | 81 | 1019.6 |
| 20260830201553 | 67 | 9 | 0.0 | 3.0 | 0.00 | 0.00 | 0.00 | 80 | 1019.6 |
| 20260830200050 | 68 | 9 | 0.0 | 3.0 | 0.00 | 0.00 | 0.00 | 80 | 1019.5 |
| 20260830194607 | 68 | 341 | 0.0 | 3.0 | 0.00 | 0.00 | 0.00 | 77 | 1019.6 |
| 20260830193103 | 69 | 26 | 1.0 | 7.0 | 0.00 | 0.00 | 0.00 | 76 | 1019.6 |
| 20260830191552 | 70 | 325 | 1.0 | 4.0 | 0.00 | 0.00 | 0.00 | 74 | 1019.7 |
| 20260830190059 | 72 | 319 | 1.0 | 5.0 | 0.00 | 0.00 | 0.00 | 73 | 1019.6 |
| 20260830184604 | 73 | 51 | 0.0 | 3.0 | 0.00 | 0.00 | 0.00 | 79 | 1019.5 |
| 20260830183123 | 73 | 0 | 0.0 | 2.0 | 0.00 | 0.00 | 0.00 | 77 | 1019.5 |
| 20260830181557 | 73 | 0 | 0.0 | 1.0 | 0.00 | 0.00 | 0.00 | 74 | 1019.4 |
| 20260830180059 | 74 | 0 | 0.0 | 2.0 | 0.00 | 0.00 | 0.00 | 74 | 1019.5 |
| 20260830174555 | 74 | 165 | 0.0 | 2.0 | 0.00 | 0.00 | 0.00 | 72 | 1019.7 |
| 20260830173054 | 73 | 0 | 1.0 | 2.0 | 0.00 | 0.00 | 0.00 | 72 | 1019.7 |
| 20260830171638 | 73 | 0 | 0.0 | 4.0 | 0.00 | 0.00 | 0.00 | 70 | 1019.9 |
| 20260830170056 | 73 | 287 | 0.0 | 2.0 | 0.00 | 0.00 | 0.00 | 71 | 1019.9 |
| 20260830164605 | 73 | 0 | 0.0 | 2.0 | 0.00 | 0.00 | 0.00 | 71 | 1020.2 |
| 20260830163101 | 72 | 93 | 1.0 | 4.0 | 0.00 | 0.00 | 0.00 | 74 | 1020.1 |
| 20260830161555 | 71 | 273 | 1.0 | 3.0 | 0.00 | 0.00 | 0.00 | 74 | 1020.3 |
| 20260830160058 | 71 | 325 | 1.0 | 3.0 | 0.00 | 0.00 | 0.00 | 72 | 1020.6 |
| 20260830154554 | 70 | 265 | 1.0 | 3.0 | 0.00 | 0.00 | 0.00 | 73 | 1020.5 |
| 20260830153101 | 70 | 265 | 0.0 | 2.0 | 0.00 | 0.00 | 0.00 | 76 | 1020.6 |
| 20260830151608 | 68 | 0 | 0.0 | 3.0 | 0.00 | 0.00 | 0.00 | 76 | 1020.8 |
| 20260830150101 | 67 | 76 | 1.0 | 3.0 | 0.00 | 0.00 | 0.00 | 78 | 1020.7 |
| 20260830144603 | 66 | 178 | 0.0 | 2.0 | 0.00 | 0.00 | 0.00 | 81 | 1020.8 |
| 20260830143058 | 65 | 0 | 0.0 | 3.0 | 0.00 | 0.00 | 0.00 | 81 | 1020.9 |
| 20260830141553 | 64 | 178 | 0.0 | 5.0 | 0.00 | 0.00 | 0.00 | 80 | 1020.5 |
| 20260830140101 | 63 | 93 | 1.0 | 2.0 | 0.00 | 0.00 | 0.00 | 81 | 1020.6 |
| 20260830134555 | 63 | 0 | 0.0 | 2.0 | 0.00 | 0.00 | 0.00 | 82 | 1020.8 |
| 20260830133056 | 62 | 188 | 1.0 | 3.0 | 0.00 | 0.00 | 0.00 | 82 | 1020.8 |
| 20260830131600 | 61 | 236 | 0.0 | 2.0 | 0.00 | 0.00 | 0.00 | 83 | 1020.9 |
| 20260830130110 | 61 | 205 | 0.0 | 2.0 | 0.00 | 0.00 | 0.00 | 82 | 1021.3 |
| 20260830124556 | 61 | 0 | 0.0 | 2.0 | 0.00 | 0.00 | 0.00 | 82 | 1021.1 |
| 20260830123058 | 61 | 247 | 0.0 | 2.0 | 0.00 | 0.00 | 0.00 | 82 | 1021.1 |
| 20260830121557 | 60 | 0 | 0.0 | 2.0 | 0.00 | 0.00 | 0.00 | 83 | 1021.1 |
| 20260830120057 | 60 | 205 | 0.0 | 2.0 | 0.00 | 0.00 | 0.00 | 82 | 1021.2 |
| 20260830114557 | 59 | 209 | 1.0 | 2.0 | 0.00 | 0.00 | 0.00 | 83 | 1021.3 |
| 20260830113058 | 59 | 137 | 0.0 | 2.0 | 0.00 | 0.00 | 0.00 | 83 | 1021.6 |
| 20260830111553 | 59 | 178 | 1.0 | 2.0 | 0.00 | 0.00 | 0.00 | 84 | 1021.6 |
| 20260830110100 | 59 | 212 | 1.0 | 2.0 | 0.00 | 0.00 | 0.00 | 84 | 1021.7 |
| 20260830104600 | 59 | 178 | 0.0 | 2.0 | 0.00 | 0.00 | 0.00 | 84 | 1021.6 |
| 20260830103057 | 59 | 196 | 1.0 | 2.0 | 0.00 | 0.00 | 0.00 | 83 | 1021.5 |
| 20260830101554 | 59 | 221 | 0.0 | 2.0 | 0.00 | 0.00 | 0.00 | 83 | 1021.7 |
| 20260830100107 | 59 | 178 | 1.0 | 3.0 | 0.00 | 0.00 | 0.00 | 83 | 1021.5 |
| 20260830094557 | 59 | 193 | 0.0 | 2.0 | 0.00 | 0.00 | 0.00 | 83 | 1021.7 |
| 20260830093053 | 59 | 178 | 0.0 | 2.0 | 0.00 | 0.00 | 0.00 | 83 | 1021.8 |
| 20260830091604 | 60 | 200 | 0.0 | 2.0 | 0.00 | 0.00 | 0.00 | 82 | 1021.9 |
| 20260830090058 | 60 | 178 | 0.0 | 2.0 | 0.00 | 0.00 | 0.00 | 81 | 1021.9 |
| 20260830084620 | 60 | 0 | 0.0 | 2.0 | 0.00 | 0.00 | 0.00 | 81 | 1021.8 |
| 20260830083052 | 60 | 205 | 0.0 | 2.0 | 0.00 | 0.00 | 0.00 | 81 | 1022.1 |
| 20260830081625 | 60 | 51 | 0.0 | 2.0 | 0.00 | 0.00 | 0.00 | 82 | 1022.2 |
| 20260830080104 | 60 | 229 | 0.0 | 2.0 | 0.00 | 0.00 | 0.00 | 82 | 1022.1 |
| 20260830074609 | 60 | 0 | 0.0 | 2.0 | 0.00 | 0.00 | 0.00 | 82 | 1022.3 |
| 20260830073100 | 60 | 0 | 0.0 | 1.0 | 0.00 | 0.00 | 0.00 | 82 | 1022.3 |
| 20260830071601 | 60 | 0 | 0.0 | 2.0 | 0.00 | 0.00 | 0.00 | 82 | 1022.3 |
| 20260830070056 | 61 | 221 | 0.0 | 2.0 | 0.00 | 0.00 | 0.00 | 81 | 1022.2 |
| 20260830064552 | 61 | 227 | 0.0 | 2.0 | 0.00 | 0.00 | 0.00 | 80 | 1022.1 |
| 20260830063059 | 61 | 178 | 0.0 | 2.0 | 0.00 | 0.00 | 0.00 | 79 | 1022.2 |
| 20260830061554 | 61 | 212 | 0.0 | 2.0 | 0.00 | 0.00 | 0.00 | 80 | 1022.3 |
| 20260830060054 | 61 | 0 | 0.0 | 2.0 | 0.00 | 0.00 | 0.00 | 79 | 1022.3 |
| 20260830054551 | 61 | 221 | 0.0 | 1.0 | 0.00 | 0.00 | 0.00 | 81 | 1022.2 |
| 20260830053056 | 62 | 178 | 1.0 | 2.0 | 0.00 | 0.00 | 0.00 | 78 | 1022.3 |
| 20260830051558 | 62 | 205 | 1.0 | 2.0 | 0.00 | 0.00 | 0.00 | 78 | 1022.3 |
| 20260830050054 | 62 | 0 | 0.0 | 2.0 | 0.00 | 0.00 | 0.00 | 79 | 1022.2 |
| 20260830044557 | 62 | 0 | 0.0 | 2.0 | 0.00 | 0.00 | 0.00 | 78 | 1022.3 |
| 20260830043109 | 62 | 0 | 0.0 | 2.0 | 0.00 | 0.00 | 0.00 | 78 | 1022.5 |
| 20260830041552 | 62 | 205 | 0.0 | 2.0 | 0.00 | 0.00 | 0.00 | 78 | 1022.5 |
| 20260830040116 | 61 | 200 | 0.0 | 2.0 | 0.00 | 0.00 | 0.00 | 79 | 1022.3 |
| 20260830034555 | 62 | 212 | 1.0 | 2.0 | 0.00 | 0.00 | 0.00 | 78 | 1022.1 |
| 20260830033105 | 61 | 212 | 0.0 | 3.0 | 0.00 | 0.00 | 0.00 | 79 | 1022.2 |
| 20260830031600 | 61 | 212 | 0.0 | 2.0 | 0.00 | 0.00 | 0.00 | 79 | 1022.1 |
| 20260830030100 | 61 | 200 | 1.0 | 2.0 | 0.00 | 0.00 | 0.00 | 80 | 1022.4 |
| 20260830024552 | 62 | 0 | 0.0 | 2.0 | 0.00 | 0.00 | 0.00 | 80 | 1022.5 |
| 20260830023058 | 63 | 215 | 1.0 | 2.0 | 0.00 | 0.00 | 0.00 | 75 | 1022.4 |
| 20260830021557 | 63 | 221 | 0.0 | 2.0 | 0.00 | 0.00 | 0.00 | 77 | 1022.4 |
| 20260830020054 | 63 | 229 | 0.0 | 2.0 | 0.00 | 0.00 | 0.00 | 75 | 1022.6 |
| 20260830014558 | 64 | 212 | 0.0 | 2.0 | 0.00 | 0.00 | 0.00 | 74 | 1022.4 |
| 20260830013057 | 64 | 0 | 0.0 | 2.0 | 0.00 | 0.00 | 0.00 | 73 | 1022.5 |
| 20260830011558 | 64 | 221 | 0.0 | 2.0 | 0.00 | 0.00 | 0.00 | 72 | 1022.4 |
| 20260830010104 | 65 | 205 | 0.0 | 2.0 | 0.00 | 0.00 | 0.00 | 71 | 1022.2 |
| 20260830004607 | 65 | 0 | 0.0 | 2.0 | 0.00 | 0.00 | 0.00 | 70 | 1022.3 |